Time,TemperatureF,DewpointF,PressureIn,WindDirection,WindDirectionDegrees,WindSpeedMPH,WindSpeedGustMPH,Humidity,HourlyPrecipIn,Conditions,Clouds,dailyrainin,SoftwareType,DateUTC
2013-01-20 00:00:00,49.0,45.0,29.99,SSW,201,7.0,7.0,86,0.00,,,0.02,Wunderground v.1.15,2013-01-20 05:00:00,
2013-01-20 00:01:00,49.0,45.0,29.99,SW,216,7.0,7.0,86,0.00,,,0.02,Wunderground v.1.15,2013-01-20 05:01:00,
2013-01-20 00:03:00,48.9,44.9,29.99,South,179,6.0,7.0,86,0.00,,,0.02,Wunderground v.1.15,2013-01-20 05:03:00,
2013-01-20 00:06:00,48.9,44.9,29.99,West,259,6.0,8.0,86,0.00,,,0.02,Wunderground v.1.15,2013-01-20 05:06:00,
2013-01-20 00:11:00,48.8,45.1,29.98,West,262,6.0,7.0,87,0.00,,,0.02,Wunderground v.1.15,2013-01-20 05:11:00,
2013-01-20 00:17:00,48.8,45.1,29.98,SW,226,6.0,7.0,87,0.00,,,0.02,Wunderground v.1.15,2013-01-20 05:17:00,
2013-01-20 00:23:00,48.8,45.4,29.98,SSE,148,6.0,10.0,88,0.00,,,0.00,Wunderground v.1.15,2013-01-20 05:23:00,
2013-01-20 00:29:00,48.9,45.5,29.98,SW,230,5.0,10.0,88,0.00,,,0.00,Wunderground v.1.15,2013-01-20 05:29:00,
2013-01-20 00:34:00,49.0,45.6,29.98,SW,217,6.0,17.0,88,0.00,,,0.00,Wunderground v.1.15,2013-01-20 05:34:00,
2013-01-20 00:40:00,49.2,45.8,29.97,SW,236,5.0,17.0,88,0.00,,,0.00,Wunderground v.1.15,2013-01-20 05:40:00,
2013-01-20 00:46:00,49.3,45.6,29.97,SW,226,5.0,17.0,87,0.00,,,0.00,Wunderground v.1.15,2013-01-20 05:46:00,
2013-01-20 00:52:00,49.3,45.9,29.96,SSW,196,5.0,17.0,88,0.00,,,0.00,Wunderground v.1.15,2013-01-20 05:52:00,
2013-01-20 00:58:00,49.3,45.6,29.96,SW,230,5.0,17.0,87,0.00,,,0.00,Wunderground v.1.15,2013-01-20 05:58:00,
2013-01-20 01:04:00,49.3,45.6,29.97,SW,229,5.0,11.0,87,0.00,,,0.00,Wunderground v.1.15,2013-01-20 06:04:00,
2013-01-20 01:09:00,49.3,45.9,29.97,NNW,340,5.0,11.0,88,0.00,,,0.00,Wunderground v.1.15,2013-01-20 06:09:00,
2013-01-20 01:15:00,49.3,45.9,29.97,WSW,242,5.0,8.0,88,0.00,,,0.00,Wunderground v.1.15,2013-01-20 06:15:00,
2013-01-20 01:21:00,49.2,45.8,29.96,West,261,5.0,6.0,88,0.00,,,0.00,Wunderground v.1.15,2013-01-20 06:21:00,
2013-01-20 01:27:00,49.3,45.6,29.96,SSW,203,5.0,9.0,87,0.00,,,0.00,Wunderground v.1.15,2013-01-20 06:27:00,
2013-01-20 01:33:00,49.2,45.5,29.96,SSW,212,5.0,15.0,87,0.00,,,0.00,Wunderground v.1.15,2013-01-20 06:33:00,
2013-01-20 01:39:00,49.2,45.5,29.96,South,189,5.0,15.0,87,0.00,,,0.00,Wunderground v.1.15,2013-01-20 06:39:00,
2013-01-20 01:44:00,49.2,45.5,29.96,SSW,210,5.0,15.0,87,0.00,,,0.00,Wunderground v.1.15,2013-01-20 06:44:00,
2013-01-20 01:50:00,49.1,45.4,29.96,SE,146,5.0,5.0,87,0.00,,,0.00,Wunderground v.1.15,2013-01-20 06:50:00,
2013-01-20 01:56:00,49.0,45.3,29.95,SSW,204,5.0,15.0,87,0.00,,,0.00,Wunderground v.1.15,2013-01-20 06:56:00,
2013-01-20 02:02:00,48.9,45.2,29.95,SSW,208,5.0,5.0,87,0.00,,,0.00,Wunderground v.1.15,2013-01-20 07:02:00,
2013-01-20 02:08:00,48.9,44.9,29.95,WSW,241,5.0,5.0,86,0.00,,,0.00,Wunderground v.1.15,2013-01-20 07:08:00,
2013-01-20 02:13:00,48.9,44.9,29.95,SE,130,5.0,10.0,86,0.00,,,0.00,Wunderground v.1.15,2013-01-20 07:13:00,
2013-01-20 02:19:00,48.8,44.8,29.94,SW,233,4.0,10.0,86,0.00,,,0.00,Wunderground v.1.15,2013-01-20 07:19:00,
2013-01-20 02:24:00,48.8,44.5,29.94,SSW,209,5.0,9.0,85,0.00,,,0.00,Wunderground v.1.15,2013-01-20 07:24:00,
2013-01-20 02:30:00,48.7,44.1,29.94,SSW,207,5.0,5.0,84,0.00,,,0.00,Wunderground v.1.15,2013-01-20 07:30:00,
2013-01-20 02:36:00,48.6,43.7,29.93,SSW,207,4.0,18.0,83,0.00,,,0.00,Wunderground v.1.15,2013-01-20 07:36:00,
2013-01-20 02:42:00,48.5,43.3,29.93,SE,129,4.0,18.0,82,0.00,,,0.00,Wunderground v.1.15,2013-01-20 07:42:00,
2013-01-20 02:48:00,48.4,43.2,29.92,SE,140,4.0,18.0,82,0.00,,,0.00,Wunderground v.1.15,2013-01-20 07:48:00,
2013-01-20 02:54:00,48.3,43.1,29.92,SSW,211,4.0,18.0,82,0.00,,,0.00,Wunderground v.1.15,2013-01-20 07:54:00,
2013-01-20 02:59:00,48.1,43.2,29.91,SSW,205,4.0,18.0,83,0.00,,,0.00,Wunderground v.1.15,2013-01-20 07:59:00,
2013-01-20 03:05:00,47.9,43.0,29.91,SE,124,3.0,4.0,83,0.00,,,0.00,Wunderground v.1.15,2013-01-20 08:05:00,
2013-01-20 03:10:00,47.8,42.6,29.91,SW,229,3.0,4.0,82,0.00,,,0.00,Wunderground v.1.15,2013-01-20 08:10:00,
2013-01-20 03:16:00,47.7,42.5,29.90,West,260,3.0,4.0,82,0.00,,,0.00,Wunderground v.1.15,2013-01-20 08:16:00,
2013-01-20 03:22:00,47.6,42.1,29.90,WSW,240,3.0,6.0,81,0.00,,,0.00,Wunderground v.1.15,2013-01-20 08:22:00,
2013-01-20 03:28:00,47.6,41.7,29.90,SW,216,4.0,6.0,80,0.00,,,0.00,Wunderground v.1.15,2013-01-20 08:28:00,
2013-01-20 03:34:00,47.6,41.7,29.89,SW,233,4.0,12.0,80,0.00,,,0.00,Wunderground v.1.15,2013-01-20 08:34:00,
2013-01-20 03:40:00,47.6,41.7,29.89,SW,217,3.0,12.0,80,0.00,,,0.00,Wunderground v.1.15,2013-01-20 08:40:00,
2013-01-20 03:46:00,47.7,42.2,29.88,South,180,4.0,12.0,81,0.00,,,0.00,Wunderground v.1.15,2013-01-20 08:46:00,
2013-01-20 03:52:00,47.7,42.2,29.88,SSW,209,4.0,12.0,81,0.00,,,0.00,Wunderground v.1.15,2013-01-20 08:52:00,
2013-01-20 03:58:00,47.6,42.1,29.88,WSW,255,3.0,12.0,81,0.00,,,0.00,Wunderground v.1.15,2013-01-20 08:58:00,
2013-01-20 04:03:00,47.5,42.0,29.88,SSW,204,3.0,8.0,81,0.00,,,0.00,Wunderground v.1.15,2013-01-20 09:03:00,
2013-01-20 04:09:00,47.6,41.7,29.87,SW,226,4.0,8.0,80,0.00,,,0.00,Wunderground v.1.15,2013-01-20 09:09:00,
2013-01-20 04:15:00,47.7,41.5,29.87,SSW,205,5.0,7.0,79,0.00,,,0.00,Wunderground v.1.15,2013-01-20 09:15:00,
2013-01-20 04:20:00,47.6,41.4,29.87,NW,323,5.0,5.0,79,0.00,,,0.00,Wunderground v.1.15,2013-01-20 09:20:00,
2013-01-20 04:26:00,47.7,41.2,29.87,West,264,4.0,7.0,78,0.00,,,0.00,Wunderground v.1.15,2013-01-20 09:26:00,
2013-01-20 04:32:00,47.7,41.5,29.87,West,270,4.0,16.0,79,0.00,,,0.00,Wunderground v.1.15,2013-01-20 09:32:00,
2013-01-20 04:38:00,47.7,41.5,29.86,NW,314,4.0,16.0,79,0.00,,,0.00,Wunderground v.1.15,2013-01-20 09:38:00,
2013-01-20 04:44:00,47.7,41.8,29.86,SSW,209,4.0,16.0,80,0.00,,,0.00,Wunderground v.1.15,2013-01-20 09:44:00,
2013-01-20 04:50:00,47.7,41.8,29.86,South,178,4.0,4.0,80,0.00,,,0.00,Wunderground v.1.15,2013-01-20 09:50:00,
2013-01-20 04:56:00,47.6,42.1,29.86,WNW,288,4.0,16.0,81,0.00,,,0.00,Wunderground v.1.15,2013-01-20 09:56:00,
2013-01-20 05:02:00,47.7,42.2,29.86,WSW,256,5.0,10.0,81,0.00,,,0.00,Wunderground v.1.15,2013-01-20 10:02:00,
2013-01-20 05:07:00,47.7,41.8,29.85,SSE,154,5.0,10.0,80,0.00,,,0.00,Wunderground v.1.15,2013-01-20 10:07:00,
2013-01-20 05:13:00,47.6,42.1,29.85,SSW,207,5.0,8.0,81,0.00,,,0.00,Wunderground v.1.15,2013-01-20 10:13:00,
2013-01-20 05:18:00,47.6,42.1,29.84,SSW,198,5.0,8.0,81,0.00,,,0.00,Wunderground v.1.15,2013-01-20 10:18:00,
2013-01-20 05:24:00,47.5,42.0,29.84,SSW,213,4.0,6.0,81,0.00,,,0.00,Wunderground v.1.15,2013-01-20 10:24:00,
2013-01-20 05:30:00,47.5,42.0,29.84,SW,219,4.0,5.0,81,0.00,,,0.00,Wunderground v.1.15,2013-01-20 10:30:00,
2013-01-20 05:36:00,47.4,41.9,29.84,WSW,244,4.0,14.0,81,0.00,,,0.00,Wunderground v.1.15,2013-01-20 10:36:00,
2013-01-20 05:42:00,47.3,41.8,29.83,South,172,4.0,14.0,81,0.00,,,0.00,Wunderground v.1.15,2013-01-20 10:42:00,
2013-01-20 05:48:00,47.4,41.9,29.83,SSW,203,5.0,14.0,81,0.00,,,0.00,Wunderground v.1.15,2013-01-20 10:48:00,
2013-01-20 05:53:00,47.3,41.8,29.83,West,276,5.0,14.0,81,0.00,,,0.00,Wunderground v.1.15,2013-01-20 10:53:00,
2013-01-20 05:59:00,47.4,41.9,29.82,South,186,5.0,14.0,81,0.00,,,0.00,Wunderground v.1.15,2013-01-20 10:59:00,
2013-01-20 06:05:00,47.4,41.9,29.82,SSW,195,4.0,8.0,81,0.00,,,0.00,Wunderground v.1.15,2013-01-20 11:05:00,
2013-01-20 06:11:00,47.4,41.9,29.82,SW,215,5.0,7.0,81,0.00,,,0.00,Wunderground v.1.15,2013-01-20 11:11:00,
2013-01-20 06:16:00,47.5,42.0,29.82,SW,216,5.0,8.0,81,0.00,,,0.00,Wunderground v.1.15,2013-01-20 11:16:00,
2013-01-20 06:22:00,47.4,41.9,29.81,SW,226,5.0,5.0,81,0.00,,,0.00,Wunderground v.1.15,2013-01-20 11:22:00,
2013-01-20 06:27:00,47.3,41.8,29.81,SW,225,5.0,9.0,81,0.00,,,0.00,Wunderground v.1.15,2013-01-20 11:27:00,
2013-01-20 06:33:00,47.3,41.8,29.81,SE,131,5.0,13.0,81,0.00,,,0.00,Wunderground v.1.15,2013-01-20 11:33:00,
2013-01-20 06:39:00,47.3,41.4,29.80,WSW,255,5.0,13.0,80,0.00,,,0.00,Wunderground v.1.15,2013-01-20 11:39:00,
2013-01-20 06:45:00,47.2,41.3,29.80,WSW,255,4.0,13.0,80,0.00,,,0.00,Wunderground v.1.15,2013-01-20 11:45:00,
2013-01-20 06:50:00,47.0,41.5,29.80,South,189,4.0,4.0,81,0.00,,,0.00,Wunderground v.1.15,2013-01-20 11:50:00,
2013-01-20 06:55:00,47.0,41.5,29.79,SW,218,4.0,13.0,81,0.00,,,0.00,Wunderground v.1.15,2013-01-20 11:55:00,
2013-01-20 07:00:00,47.2,41.3,29.79,SSW,198,5.0,5.0,80,0.00,,,0.00,Wunderground v.1.15,2013-01-20 12:00:00,
2013-01-20 07:05:00,47.2,41.0,29.79,WSW,243,5.0,6.0,79,0.00,,,0.00,Wunderground v.1.15,2013-01-20 12:05:00,
2013-01-20 07:11:00,47.3,41.1,29.79,SSW,213,5.0,5.0,79,0.00,,,0.00,Wunderground v.1.15,2013-01-20 12:11:00,
2013-01-20 07:17:00,47.3,40.8,29.79,South,191,4.0,10.0,78,0.00,,,0.00,Wunderground v.1.15,2013-01-20 12:17:00,
2013-01-20 07:23:00,47.3,40.8,29.78,SSW,203,4.0,6.0,78,0.00,,,0.00,Wunderground v.1.15,2013-01-20 12:23:00,
2013-01-20 07:29:00,47.5,40.6,29.78,SW,222,4.0,7.0,77,0.00,,,0.00,Wunderground v.1.15,2013-01-20 12:29:00,
2013-01-20 07:35:00,47.6,40.7,29.77,West,259,4.0,14.0,77,0.00,,,0.00,Wunderground v.1.15,2013-01-20 12:35:00,
2013-01-20 07:41:00,47.8,40.9,29.77,SSE,158,5.0,14.0,77,0.00,,,0.00,Wunderground v.1.15,2013-01-20 12:41:00,
2013-01-20 07:46:00,47.9,40.7,29.77,SSW,212,5.0,14.0,76,0.00,,,0.00,Wunderground v.1.15,2013-01-20 12:46:00,
2013-01-20 07:52:00,48.0,40.5,29.77,WSW,242,5.0,14.0,75,0.00,,,0.00,Wunderground v.1.15,2013-01-20 12:52:00,
2013-01-20 07:58:00,48.2,40.6,29.77,SW,219,4.0,14.0,75,0.00,,,0.00,Wunderground v.1.15,2013-01-20 12:58:00,
2013-01-20 08:04:00,48.5,40.6,29.77,SW,217,5.0,5.0,74,0.00,,,0.00,Wunderground v.1.15,2013-01-20 13:04:00,
2013-01-20 08:10:00,48.9,41.0,29.77,SW,232,6.0,8.0,74,0.00,,,0.00,Wunderground v.1.15,2013-01-20 13:10:00,
2013-01-20 08:16:00,49.2,40.9,29.77,WNW,282,6.0,8.0,73,0.00,,,0.00,Wunderground v.1.15,2013-01-20 13:16:00,
2013-01-20 08:22:00,49.2,41.3,29.78,West,279,6.0,9.0,74,0.00,,,0.00,Wunderground v.1.15,2013-01-20 13:22:00,
2013-01-20 08:28:00,49.3,41.0,29.78,WSW,253,6.0,11.0,73,0.00,,,0.00,Wunderground v.1.15,2013-01-20 13:28:00,
2013-01-20 08:33:00,49.5,41.2,29.78,WSW,245,5.0,14.0,73,0.00,,,0.00,Wunderground v.1.15,2013-01-20 13:33:00,
2013-01-20 08:38:00,49.6,41.3,29.78,SSW,200,5.0,14.0,73,0.00,,,0.00,Wunderground v.1.15,2013-01-20 13:38:00,
2013-01-20 08:44:00,49.7,41.0,29.77,SW,227,5.0,14.0,72,0.00,,,0.00,Wunderground v.1.15,2013-01-20 13:44:00,
2013-01-20 08:50:00,49.9,41.2,29.77,SSW,200,5.0,5.0,72,0.00,,,0.00,Wunderground v.1.15,2013-01-20 13:50:00,
2013-01-20 08:56:00,50.2,41.5,29.77,SSW,193,6.0,14.0,72,0.00,,,0.00,Wunderground v.1.15,2013-01-20 13:56:00,
2013-01-20 09:02:00,50.5,41.4,29.77,SW,236,6.0,6.0,71,0.00,,,0.00,Wunderground v.1.15,2013-01-20 14:02:00,
2013-01-20 09:07:00,50.6,41.2,29.77,SW,229,5.0,9.0,70,0.00,,,0.00,Wunderground v.1.15,2013-01-20 14:07:00,
2013-01-20 09:13:00,50.8,41.4,29.77,WSW,246,6.0,8.0,70,0.00,,,0.00,Wunderground v.1.15,2013-01-20 14:13:00,
2013-01-20 09:18:00,51.0,41.6,29.77,South,185,6.0,11.0,70,0.00,,,0.00,Wunderground v.1.15,2013-01-20 14:18:00,
2013-01-20 09:24:00,51.1,42.0,29.77,South,191,6.0,11.0,71,0.00,,,0.00,Wunderground v.1.15,2013-01-20 14:24:00,
2013-01-20 09:30:00,51.3,41.8,29.76,SSE,165,6.0,6.0,70,0.00,,,0.00,Wunderground v.1.15,2013-01-20 14:30:00,
2013-01-20 09:36:00,51.5,42.0,29.75,SSW,207,5.0,18.0,70,0.00,,,0.00,Wunderground v.1.15,2013-01-20 14:36:00,
2013-01-20 09:42:00,51.6,41.8,29.76,WSW,237,6.0,18.0,69,0.00,,,0.00,Wunderground v.1.15,2013-01-20 14:42:00,
2013-01-20 09:47:00,51.6,41.4,29.76,West,276,6.0,18.0,68,0.00,,,0.00,Wunderground v.1.15,2013-01-20 14:47:00,
2013-01-20 09:53:00,51.6,41.4,29.76,West,270,7.0,18.0,68,0.00,,,0.00,Wunderground v.1.15,2013-01-20 14:53:00,
2013-01-20 09:59:00,51.6,41.4,29.76,SW,236,7.0,18.0,68,0.00,,,0.00,Wunderground v.1.15,2013-01-20 14:59:00,
2013-01-20 10:05:00,51.7,41.5,29.76,SW,236,7.0,11.0,68,0.00,,,0.00,Wunderground v.1.15,2013-01-20 15:05:00,
2013-01-20 10:11:00,51.8,41.6,29.75,WNW,298,7.0,7.0,68,0.00,,,0.00,Wunderground v.1.15,2013-01-20 15:11:00,
2013-01-20 10:17:00,51.9,41.7,29.76,West,264,7.0,10.0,68,0.00,,,0.00,Wunderground v.1.15,2013-01-20 15:17:00,
2013-01-20 10:23:00,52.0,41.8,29.75,West,259,7.0,7.0,68,0.00,,,0.00,Wunderground v.1.15,2013-01-20 15:23:00,
2013-01-20 10:29:00,52.1,41.9,29.75,WNW,296,6.0,11.0,68,0.00,,,0.00,Wunderground v.1.15,2013-01-20 15:29:00,
2013-01-20 10:35:00,52.1,41.9,29.75,West,264,7.0,21.0,68,0.00,,,0.00,Wunderground v.1.15,2013-01-20 15:35:00,
2013-01-20 10:41:00,52.2,42.0,29.75,West,276,7.0,21.0,68,0.00,,,0.00,Wunderground v.1.15,2013-01-20 15:41:00,
2013-01-20 10:46:00,52.2,42.0,29.74,WNW,285,7.0,21.0,68,0.00,,,0.00,Wunderground v.1.15,2013-01-20 15:46:00,
2013-01-20 10:52:00,52.1,41.9,29.74,WSW,251,7.0,21.0,68,0.00,,,0.00,Wunderground v.1.15,2013-01-20 15:52:00,
2013-01-20 10:58:00,52.3,42.4,29.73,WSW,252,7.0,21.0,69,0.00,,,0.00,Wunderground v.1.15,2013-01-20 15:58:00,
2013-01-20 11:04:00,52.3,42.4,29.73,SW,219,7.0,8.0,69,0.00,,,0.00,Wunderground v.1.15,2013-01-20 16:04:00,
2013-01-20 11:10:00,52.4,42.5,29.72,WNW,303,7.0,7.0,69,0.00,,,0.00,Wunderground v.1.15,2013-01-20 16:10:00,
2013-01-20 11:16:00,52.2,42.0,29.72,South,172,7.0,7.0,68,0.00,,,0.00,Wunderground v.1.15,2013-01-20 16:16:00,
2013-01-20 11:22:00,52.2,42.3,29.71,WNW,288,7.0,16.0,69,0.00,,,0.00,Wunderground v.1.15,2013-01-20 16:22:00,
2013-01-20 11:28:00,52.1,42.2,29.71,West,281,7.0,17.0,69,0.00,,,0.00,Wunderground v.1.15,2013-01-20 16:28:00,
2013-01-20 11:33:00,52.0,42.1,29.70,SW,221,7.0,25.0,69,0.00,,,0.00,Wunderground v.1.15,2013-01-20 16:33:00,
2013-01-20 11:39:00,52.3,42.4,29.70,SSW,193,6.0,25.0,69,0.00,,,0.00,Wunderground v.1.15,2013-01-20 16:39:00,
2013-01-20 11:45:00,52.3,42.0,29.69,SSW,198,7.0,25.0,68,0.00,,,0.00,Wunderground v.1.15,2013-01-20 16:45:00,
2013-01-20 11:51:00,52.4,41.4,29.69,WSW,257,7.0,25.0,66,0.00,,,0.00,Wunderground v.1.15,2013-01-20 16:51:00,
2013-01-20 11:57:00,52.2,41.2,29.69,West,271,7.0,25.0,66,0.00,,,0.00,Wunderground v.1.15,2013-01-20 16:57:00,
2013-01-20 12:03:00,52.3,41.7,29.69,South,176,7.0,8.0,67,0.00,,,0.00,Wunderground v.1.15,2013-01-20 17:03:00,
2013-01-20 12:09:00,52.0,41.4,29.68,WSW,252,7.0,11.0,67,0.00,,,0.00,Wunderground v.1.15,2013-01-20 17:09:00,
2013-01-20 12:14:00,52.1,41.5,29.68,SW,220,7.0,20.0,67,0.00,,,0.00,Wunderground v.1.15,2013-01-20 17:14:00,
2013-01-20 12:20:00,52.0,41.0,29.68,WSW,249,7.0,7.0,66,0.00,,,0.00,Wunderground v.1.15,2013-01-20 17:20:00,
2013-01-20 12:26:00,51.7,40.7,29.67,South,184,7.0,10.0,66,0.00,,,0.00,Wunderground v.1.15,2013-01-20 17:26:00,
2013-01-20 12:32:00,51.7,40.7,29.67,WSW,248,6.0,25.0,66,0.00,,,0.00,Wunderground v.1.15,2013-01-20 17:32:00,
2013-01-20 12:38:00,51.8,40.8,29.67,WNW,292,7.0,25.0,66,0.00,,,0.00,Wunderground v.1.15,2013-01-20 17:38:00,
2013-01-20 12:44:00,51.8,40.8,29.67,West,262,7.0,25.0,66,0.00,,,0.00,Wunderground v.1.15,2013-01-20 17:44:00,
2013-01-20 12:50:00,51.5,40.1,29.67,West,266,7.0,7.0,65,0.00,,,0.00,Wunderground v.1.15,2013-01-20 17:50:00,
2013-01-20 12:56:00,51.5,39.7,29.67,South,177,7.0,25.0,64,0.00,,,0.00,Wunderground v.1.15,2013-01-20 17:56:00,
2013-01-20 13:02:00,51.1,40.1,29.66,SSW,203,7.0,9.0,66,0.00,,,0.00,Wunderground v.1.15,2013-01-20 18:02:00,
2013-01-20 13:08:00,50.6,39.3,29.66,SSW,200,8.0,15.0,65,0.00,,,0.00,Wunderground v.1.15,2013-01-20 18:08:00,
2013-01-20 13:13:00,50.4,39.1,29.66,SSW,203,7.0,9.0,65,0.00,,,0.00,Wunderground v.1.15,2013-01-20 18:13:00,
2013-01-20 13:19:00,50.5,39.2,29.66,SW,217,6.0,10.0,65,0.00,,,0.00,Wunderground v.1.15,2013-01-20 18:19:00,
2013-01-20 13:25:00,51.0,39.2,29.66,SSW,210,5.0,7.0,64,0.00,,,0.00,Wunderground v.1.15,2013-01-20 18:25:00,
2013-01-20 13:31:00,51.1,38.5,29.66,WSW,243,5.0,22.0,62,0.00,,,0.00,Wunderground v.1.15,2013-01-20 18:31:00,
2013-01-20 13:37:00,51.0,38.4,29.66,SSE,147,7.0,22.0,62,0.00,,,0.00,Wunderground v.1.15,2013-01-20 18:37:00,
2013-01-20 13:43:00,51.2,38.6,29.66,South,178,7.0,22.0,62,0.00,,,0.00,Wunderground v.1.15,2013-01-20 18:43:00,
2013-01-20 13:49:00,51.2,38.6,29.66,South,177,6.0,22.0,62,0.00,,,0.00,Wunderground v.1.15,2013-01-20 18:49:00,
2013-01-20 13:54:00,50.9,39.1,29.66,South,181,7.0,22.0,64,0.00,,,0.00,Wunderground v.1.15,2013-01-20 18:54:00,
2013-01-20 14:00:00,50.7,38.6,29.66,West,281,8.0,8.0,63,0.00,,,0.00,Wunderground v.1.15,2013-01-20 19:00:00,
2013-01-20 14:06:00,50.8,38.2,29.66,WSW,255,8.0,15.0,62,0.00,,,0.00,Wunderground v.1.15,2013-01-20 19:06:00,
2013-01-20 14:12:00,50.8,37.8,29.67,WSW,239,8.0,13.0,61,0.00,,,0.00,Wunderground v.1.15,2013-01-20 19:12:00,
2013-01-20 14:17:00,50.8,37.4,29.67,South,186,9.0,13.0,60,0.00,,,0.00,Wunderground v.1.15,2013-01-20 19:17:00,
2013-01-20 14:23:00,50.9,37.1,29.67,West,275,9.0,14.0,59,0.00,,,0.00,Wunderground v.1.15,2013-01-20 19:23:00,
2013-01-20 14:29:00,51.0,36.3,29.67,West,276,8.0,15.0,57,0.00,,,0.00,Wunderground v.1.15,2013-01-20 19:29:00,
2013-01-20 14:35:00,51.3,36.1,29.67,WSW,242,7.0,19.0,56,0.00,,,0.00,Wunderground v.1.15,2013-01-20 19:35:00,
2013-01-20 14:41:00,51.2,35.6,29.67,South,179,9.0,19.0,55,0.00,,,0.00,Wunderground v.1.15,2013-01-20 19:41:00,
2013-01-20 14:47:00,51.1,35.5,29.68,SW,219,9.0,19.0,55,0.00,,,0.00,Wunderground v.1.15,2013-01-20 19:47:00,
2013-01-20 14:53:00,50.9,35.7,29.68,South,177,9.0,19.0,56,0.00,,,0.00,Wunderground v.1.15,2013-01-20 19:53:00,
2013-01-20 14:59:00,50.9,35.7,29.68,WNW,282,8.0,19.0,56,0.00,,,0.00,Wunderground v.1.15,2013-01-20 19:59:00,
2013-01-20 15:05:00,50.6,35.9,29.68,West,259,7.0,15.0,57,0.00,,,0.00,Wunderground v.1.15,2013-01-20 20:05:00,
2013-01-20 15:10:00,50.4,36.2,29.68,WNW,299,7.0,12.0,58,0.00,,,0.00,Wunderground v.1.15,2013-01-20 20:10:00,
2013-01-20 15:16:00,50.2,36.0,29.68,SSW,192,8.0,13.0,58,0.00,,,0.00,Wunderground v.1.15,2013-01-20 20:16:00,
2013-01-20 15:22:00,50.0,36.2,29.69,West,278,8.0,14.0,59,0.00,,,0.00,Wunderground v.1.15,2013-01-20 20:22:00,
2013-01-20 15:28:00,49.9,36.6,29.69,WSW,256,8.0,14.0,60,0.00,,,0.00,Wunderground v.1.15,2013-01-20 20:28:00,
2013-01-20 15:34:00,49.7,36.4,29.69,WSW,247,7.0,23.0,60,0.00,,,0.00,Wunderground v.1.15,2013-01-20 20:34:00,
2013-01-20 15:40:00,49.6,36.7,29.69,WSW,255,7.0,7.0,61,0.00,,,0.00,Wunderground v.1.15,2013-01-20 20:40:00,
2013-01-20 15:46:00,49.4,36.9,29.69,WSW,244,6.0,23.0,62,0.00,,,0.00,Wunderground v.1.15,2013-01-20 20:46:00,
2013-01-20 15:52:00,49.2,36.7,29.69,West,277,6.0,23.0,62,0.00,,,0.00,Wunderground v.1.15,2013-01-20 20:52:00,
2013-01-20 15:57:00,49.1,37.0,29.70,SW,236,6.0,23.0,63,0.00,,,0.00,Wunderground v.1.15,2013-01-20 20:57:00,
2013-01-20 16:02:00,48.9,36.9,29.70,West,274,7.0,9.0,63,0.00,,,0.00,Wunderground v.1.15,2013-01-20 21:02:00,
2013-01-20 16:08:00,48.6,36.6,29.70,West,274,7.0,13.0,63,0.00,,,0.00,Wunderground v.1.15,2013-01-20 21:08:00,
2013-01-20 16:13:00,48.6,36.6,29.70,West,275,6.0,8.0,63,0.00,,,0.00,Wunderground v.1.15,2013-01-20 21:13:00,
2013-01-20 16:19:00,48.3,37.5,29.71,West,262,6.0,9.0,66,0.00,,,0.00,Wunderground v.1.15,2013-01-20 21:19:00,
2013-01-20 16:24:00,47.9,37.8,29.71,WSW,238,6.0,11.0,68,0.00,,,0.00,Wunderground v.1.15,2013-01-20 21:24:00,
2013-01-20 16:30:00,47.9,36.3,29.72,ESE,105,7.0,7.0,64,0.00,,,0.00,Wunderground v.1.15,2013-01-20 21:30:00,
2013-01-20 16:36:00,47.8,36.6,29.71,West,262,7.0,20.0,65,0.00,,,0.00,Wunderground v.1.15,2013-01-20 21:36:00,
2013-01-20 16:41:00,47.7,36.9,29.72,West,263,7.0,20.0,66,0.00,,,0.00,Wunderground v.1.15,2013-01-20 21:41:00,
2013-01-20 16:46:00,47.6,36.8,29.72,West,280,6.0,20.0,66,0.00,,,0.00,Wunderground v.1.15,2013-01-20 21:46:00,
2013-01-20 16:52:00,47.7,36.9,29.72,SSW,206,6.0,20.0,66,0.00,,,0.00,Wunderground v.1.15,2013-01-20 21:52:00,
2013-01-20 16:57:00,47.7,36.9,29.72,West,278,7.0,20.0,66,0.00,,,0.00,Wunderground v.1.15,2013-01-20 21:57:00,
2013-01-20 17:03:00,47.8,36.2,29.72,SSW,207,6.0,8.0,64,0.00,,,0.00,Wunderground v.1.15,2013-01-20 22:03:00,
2013-01-20 17:09:00,47.6,36.4,29.72,WNW,298,6.0,8.0,65,0.00,,,0.00,Wunderground v.1.15,2013-01-20 22:09:00,
2013-01-20 17:15:00,47.4,36.2,29.73,West,279,6.0,6.0,65,0.00,,,0.00,Wunderground v.1.15,2013-01-20 22:15:00,
2013-01-20 17:21:00,47.3,35.3,29.73,WNW,289,6.0,11.0,63,0.00,,,0.00,Wunderground v.1.15,2013-01-20 22:21:00,
2013-01-20 17:27:00,47.4,34.2,29.73,West,274,7.0,14.0,60,0.00,,,0.00,Wunderground v.1.15,2013-01-20 22:27:00,
2013-01-20 17:33:00,47.7,33.2,29.74,West,269,8.0,17.0,57,0.00,,,0.00,Wunderground v.1.15,2013-01-20 22:33:00,
2013-01-20 17:39:00,47.7,33.6,29.74,West,264,9.0,17.0,58,0.00,,,0.00,Wunderground v.1.15,2013-01-20 22:39:00,
2013-01-20 17:44:00,47.6,33.5,29.75,West,266,9.0,20.0,58,0.00,,,0.00,Wunderground v.1.15,2013-01-20 22:44:00,
2013-01-20 17:50:00,47.4,34.2,29.75,West,275,8.0,8.0,60,0.00,,,0.00,Wunderground v.1.15,2013-01-20 22:50:00,
2013-01-20 17:56:00,47.0,34.6,29.75,West,281,7.0,17.0,62,0.00,,,0.00,Wunderground v.1.15,2013-01-20 22:56:00,
2013-01-20 18:02:00,46.7,34.4,29.76,WSW,252,7.0,9.0,62,0.00,,,0.00,Wunderground v.1.15,2013-01-20 23:02:00,
2013-01-20 18:07:00,46.5,34.2,29.76,WNW,290,5.0,9.0,62,0.00,,,0.00,Wunderground v.1.15,2013-01-20 23:07:00,
2013-01-20 18:13:00,46.5,34.6,29.76,West,277,5.0,10.0,63,0.00,,,0.00,Wunderground v.1.15,2013-01-20 23:13:00,
2013-01-20 18:18:00,46.5,34.6,29.76,West,262,6.0,11.0,63,0.00,,,0.00,Wunderground v.1.15,2013-01-20 23:18:00,
2013-01-20 18:24:00,46.3,34.8,29.77,NW,318,7.0,10.0,64,0.00,,,0.00,Wunderground v.1.15,2013-01-20 23:24:00,
2013-01-20 18:30:00,46.0,35.7,29.77,NW,309,6.0,6.0,67,0.00,,,0.00,Wunderground v.1.15,2013-01-20 23:30:00,
2013-01-20 18:36:00,45.7,35.7,29.78,West,275,7.0,24.0,68,0.00,,,0.00,Wunderground v.1.15,2013-01-20 23:36:00,
2013-01-20 18:42:00,45.5,35.2,29.78,West,272,6.0,24.0,67,0.00,,,0.00,Wunderground v.1.15,2013-01-20 23:42:00,
2013-01-20 18:48:00,45.4,33.9,29.78,NW,307,6.0,24.0,64,0.00,,,0.00,Wunderground v.1.15,2013-01-20 23:48:00,
2013-01-20 18:54:00,45.4,31.9,29.78,NNW,333,5.0,24.0,59,0.00,,,0.00,Wunderground v.1.15,2013-01-20 23:54:00,
2013-01-20 18:59:00,45.5,28.9,29.78,WNW,295,5.0,24.0,52,0.00,,,0.00,Wunderground v.1.15,2013-01-20 23:59:00,
2013-01-20 19:05:00,45.7,28.1,29.79,NNW,346,6.0,12.0,50,0.00,,,0.00,Wunderground v.1.15,2013-01-21 00:05:00,
2013-01-20 19:11:00,45.4,26.3,29.79,NW,306,7.0,11.0,47,0.00,,,0.00,Wunderground v.1.15,2013-01-21 00:11:00,
2013-01-20 19:16:00,45.2,24.0,29.80,West,277,7.0,11.0,43,0.00,,,0.00,Wunderground v.1.15,2013-01-21 00:16:00,
2013-01-20 19:22:00,44.9,22.6,29.80,West,274,7.0,8.0,41,0.00,,,0.00,Wunderground v.1.15,2013-01-21 00:22:00,
2013-01-20 19:28:00,44.7,23.0,29.81,NW,314,7.0,13.0,42,0.00,,,0.00,Wunderground v.1.15,2013-01-21 00:28:00,
2013-01-20 19:34:00,44.2,23.6,29.81,NNW,340,6.0,14.0,44,0.00,,,0.00,Wunderground v.1.15,2013-01-21 00:34:00,
2013-01-20 19:40:00,43.4,24.0,29.82,NW,308,6.0,14.0,46,0.00,,,0.00,Wunderground v.1.15,2013-01-21 00:40:00,
2013-01-20 19:46:00,42.8,22.4,29.82,West,278,6.0,14.0,44,0.00,,,0.00,Wunderground v.1.15,2013-01-21 00:46:00,
2013-01-20 19:52:00,42.4,22.0,29.83,WNW,284,6.0,14.0,44,0.00,,,0.00,Wunderground v.1.15,2013-01-21 00:52:00,
2013-01-20 19:58:00,42.1,21.7,29.83,North,359,6.0,14.0,44,0.00,,,0.00,Wunderground v.1.15,2013-01-21 00:58:00,
2013-01-20 20:03:00,41.8,21.5,29.84,NNW,342,6.0,6.0,44,0.00,,,0.00,Wunderground v.1.15,2013-01-21 01:03:00,
2013-01-20 20:09:00,41.4,22.7,29.84,NNW,337,5.0,9.0,47,0.00,,,0.00,Wunderground v.1.15,2013-01-21 01:09:00,
2013-01-20 20:15:00,41.0,22.8,29.84,NNW,347,5.0,6.0,48,0.00,,,0.00,Wunderground v.1.15,2013-01-21 01:15:00,
2013-01-20 20:21:00,40.7,22.5,29.85,North,5,5.0,5.0,48,0.00,,,0.00,Wunderground v.1.15,2013-01-21 01:21:00,
2013-01-20 20:27:00,40.5,22.3,29.85,WNW,300,6.0,13.0,48,0.00,,,0.00,Wunderground v.1.15,2013-01-21 01:27:00,
2013-01-20 20:33:00,40.0,22.4,29.85,WNW,285,6.0,15.0,49,0.00,,,0.00,Wunderground v.1.15,2013-01-21 01:33:00,
2013-01-20 20:39:00,39.7,22.6,29.86,WNW,288,5.0,15.0,50,0.00,,,0.00,Wunderground v.1.15,2013-01-21 01:39:00,
2013-01-20 20:44:00,39.4,22.8,29.86,NNW,328,5.0,15.0,51,0.00,,,0.00,Wunderground v.1.15,2013-01-21 01:44:00,
2013-01-20 20:50:00,39.2,23.0,29.87,WNW,296,4.0,15.0,52,0.00,,,0.00,Wunderground v.1.15,2013-01-21 01:50:00,
2013-01-20 20:56:00,39.1,22.9,29.88,WNW,295,5.0,15.0,52,0.00,,,0.00,Wunderground v.1.15,2013-01-21 01:56:00,
2013-01-20 21:02:00,38.8,22.7,29.88,NW,307,4.0,4.0,52,0.00,,,0.00,Wunderground v.1.15,2013-01-21 02:02:00,
2013-01-20 21:08:00,38.4,20.9,29.88,WNW,293,5.0,12.0,49,0.00,,,0.00,Wunderground v.1.15,2013-01-21 02:08:00,
2013-01-20 21:14:00,38.3,20.3,29.89,NW,304,8.0,19.0,48,0.00,,,0.00,Wunderground v.1.15,2013-01-21 02:14:00,
2013-01-20 21:20:00,38.0,20.0,29.89,NW,314,9.0,9.0,48,0.00,,,0.00,Wunderground v.1.15,2013-01-21 02:20:00,
2013-01-20 21:25:00,37.5,19.6,29.90,WNW,300,8.0,9.0,48,0.00,,,0.00,Wunderground v.1.15,2013-01-21 02:25:00,
2013-01-20 21:30:00,37.3,19.9,29.90,WNW,288,8.0,8.0,49,0.00,,,0.00,Wunderground v.1.15,2013-01-21 02:30:00,
2013-01-20 21:35:00,37.1,18.7,29.90,NNW,333,8.0,16.0,47,0.00,,,0.00,Wunderground v.1.15,2013-01-21 02:35:00,
2013-01-20 21:41:00,36.8,19.4,29.91,NW,318,8.0,13.0,49,0.00,,,0.00,Wunderground v.1.15,2013-01-21 02:41:00,
2013-01-20 21:47:00,36.5,18.6,29.91,WSW,255,8.0,13.0,48,0.00,,,0.00,Wunderground v.1.15,2013-01-21 02:47:00,
2013-01-20 21:53:00,36.2,18.9,29.92,North,354,9.0,13.0,49,0.00,,,0.00,Wunderground v.1.15,2013-01-21 02:53:00,
2013-01-20 21:58:00,36.0,19.1,29.92,West,278,9.0,13.0,50,0.00,,,0.00,Wunderground v.1.15,2013-01-21 02:58:00,
2013-01-20 22:04:00,35.9,19.5,29.92,NNW,330,7.0,9.0,51,0.00,,,0.00,Wunderground v.1.15,2013-01-21 03:04:00,
2013-01-20 22:10:00,35.7,18.9,29.92,WNW,288,8.0,8.0,50,0.00,,,0.00,Wunderground v.1.15,2013-01-21 03:10:00,
2013-01-20 22:15:00,35.5,18.7,29.92,WNW,290,8.0,10.0,50,0.00,,,0.00,Wunderground v.1.15,2013-01-21 03:15:00,
2013-01-20 22:20:00,35.3,17.1,29.93,WNW,294,7.0,16.0,47,0.00,,,0.00,Wunderground v.1.15,2013-01-21 03:20:00,
2013-01-20 22:26:00,35.1,16.4,29.93,WNW,294,10.0,16.0,46,0.00,,,0.00,Wunderground v.1.15,2013-01-21 03:26:00,
2013-01-20 22:31:00,34.8,16.1,29.93,West,262,10.0,18.0,46,0.00,,,0.00,Wunderground v.1.15,2013-01-21 03:31:00,
2013-01-20 22:36:00,34.6,16.4,29.93,WNW,286,9.0,18.0,47,0.00,,,0.00,Wunderground v.1.15,2013-01-21 03:36:00,
2013-01-20 22:42:00,34.3,15.6,29.94,WNW,298,9.0,18.0,46,0.00,,,0.00,Wunderground v.1.15,2013-01-21 03:42:00,
2013-01-20 22:47:00,34.2,16.5,29.94,WNW,302,9.0,18.0,48,0.00,,,0.00,Wunderground v.1.15,2013-01-21 03:47:00,
2013-01-20 22:53:00,33.8,16.2,29.94,NW,323,8.0,18.0,48,0.00,,,0.00,Wunderground v.1.15,2013-01-21 03:53:00,
2013-01-20 22:58:00,33.7,16.1,29.94,WNW,284,7.0,18.0,48,0.00,,,0.00,Wunderground v.1.15,2013-01-21 03:58:00,
2013-01-20 23:04:00,33.5,16.4,29.94,NW,316,7.0,10.0,49,0.00,,,0.00,Wunderground v.1.15,2013-01-21 04:04:00,
2013-01-20 23:10:00,33.4,16.7,29.94,NNW,329,8.0,9.0,50,0.00,,,0.00,Wunderground v.1.15,2013-01-21 04:10:00,
2013-01-20 23:15:00,33.3,16.2,29.95,NW,317,7.0,17.0,49,0.00,,,0.00,Wunderground v.1.15,2013-01-21 04:15:00,
2013-01-20 23:21:00,33.1,16.0,29.95,NW,307,7.0,7.0,49,0.00,,,0.00,Wunderground v.1.15,2013-01-21 04:21:00,
2013-01-20 23:27:00,33.0,15.4,29.95,NW,316,8.0,13.0,48,0.00,,,0.00,Wunderground v.1.15,2013-01-21 04:27:00,
2013-01-20 23:33:00,32.9,15.3,29.95,NW,307,8.0,20.0,48,0.00,,,0.00,Wunderground v.1.15,2013-01-21 04:33:00,
2013-01-20 23:39:00,32.8,15.7,29.96,West,264,7.0,20.0,49,0.00,,,0.00,Wunderground v.1.15,2013-01-21 04:39:00,
2013-01-20 23:44:00,32.6,15.5,29.96,WNW,285,6.0,20.0,49,0.00,,,0.00,Wunderground v.1.15,2013-01-21 04:44:00,
2013-01-20 23:50:00,32.4,14.9,29.96,WNW,287,6.0,6.0,48,0.00,,,0.00,Wunderground v.1.15,2013-01-21 04:50:00,
2013-01-20 23:56:00,32.3,15.3,29.96,WNW,286,7.0,20.0,49,0.00,,,0.00,Wunderground v.1.15,2013-01-21 04:56:00,